• In Deutschland
  • Länderverzeichnis
  • Für 7 Tage
  • Wassertemperatur
  • Satellitenkarten
  • Wetterkarte
  • Widgets
  • user-avatar
    Anmelden

    Stündliche Wetter Myshutyne

    Heute, 20 August, Montag

    Zeit Temperatur Niederschläge Wind Luftdruck Luftfeuchtigkeit
    00:00 +17°C° 0 mm 2 m/S 746 mmHg 65%
    01:00 +17°C° 0 mm 2 m/S 746 mmHg 66%
    02:00 +17°C° 0 mm 2 m/S 746 mmHg 67%
    03:00 +16°C° 0 mm 2 m/S 746 mmHg 68%
    04:00 +16°C° 0 mm 2 m/S 746 mmHg 69%
    05:00 +16°C° 0 mm 2 m/S 745 mmHg 70%
    06:00 +18°C° 0 mm 2 m/S 745 mmHg 66%
    07:00 +19°C° 0 mm 2 m/S 746 mmHg 63%
    08:00 +21°C° 0 mm 2 m/S 746 mmHg 60%
    09:00 +23°C° 0 mm 2 m/S 746 mmHg 56%
    10:00 +25°C° 0 mm 3 m/S 746 mmHg 52%
    11:00 +27°C° 0 mm 3 m/S 745 mmHg 48%
    12:00 +27°C° 0 mm 3 m/S 745 mmHg 47%
    13:00 +28°C° 0 mm 3 m/S 745 mmHg 47%
    14:00 +28°C° 0 mm 3 m/S 745 mmHg 46%
    15:00 +28°C° 0 mm 3 m/S 744 mmHg 50%
    16:00 +28°C° 0 mm 2 m/S 744 mmHg 54%
    17:00 +27°C° 0 mm 2 m/S 744 mmHg 57%
    18:00 +26°C° 0 mm 2 m/S 744 mmHg 60%
    19:00 +24°C° 0 mm 2 m/S 744 mmHg 63%
    20:00 +21°C° 0 mm 2 m/S 744 mmHg 66%
    21:00 +21°C° 0 mm 2 m/S 744 mmHg 68%
    22:00 +20°C° 0 mm 2 m/S 743 mmHg 69%
    23:00 +20°C° 0 mm 2 m/S 743 mmHg 71%

    Morgen, 21 August, Dienstag

    Zeit Temperatur Niederschläge Wind Luftdruck Luftfeuchtigkeit
    00:00 +19°C° 0 mm 2 m/S 743 mmHg 72%
    01:00 +19°C° 0 mm 2 m/S 743 mmHg 74%
    02:00 +18°C° 0 mm 2 m/S 743 mmHg 75%
    03:00 +18°C° 0 mm 2 m/S 743 mmHg 75%
    04:00 +18°C° 0 mm 3 m/S 742 mmHg 75%
    05:00 +17°C° 0 mm 3 m/S 742 mmHg 75%
    06:00 +19°C° 0 mm 3 m/S 742 mmHg 71%
    07:00 +21°C° 0 mm 3 m/S 742 mmHg 66%
    08:00 +22°C° 0 mm 4 m/S 742 mmHg 62%
    09:00 +25°C° 0 mm 4 m/S 742 mmHg 59%
    10:00 +26°C° 0 mm 5 m/S 742 mmHg 55%
    11:00 +28°C° 0 mm 5 m/S 742 mmHg 51%
    12:00 +28°C° 0,1 mm 5 m/S 742 mmHg 52%
    13:00 +28°C° 0,1 mm 5 m/S 741 mmHg 53%
    14:00 +28°C° 0,1 mm 6 m/S 741 mmHg 55%
    15:00 +27°C° 0,8 mm 5 m/S 741 mmHg 61%
    16:00 +26°C° 0,8 mm 5 m/S 741 mmHg 67%
    17:00 +25°C° 0,8 mm 5 m/S 741 mmHg 73%
    18:00 +22°C° 0,3 mm 4 m/S 741 mmHg 78%
    19:00 +21°C° 0,3 mm 4 m/S 741 mmHg 84%
    20:00 +19°C° 0,3 mm 3 m/S 742 mmHg 89%
    21:00 +18°C° 0 mm 3 m/S 742 mmHg 90%
    22:00 +17°C° 0 mm 3 m/S 742 mmHg 90%
    23:00 +16°C° 0 mm 3 m/S 743 mmHg 91%

    übermorgen, 22 August, Mittwoch

    Zeit Temperatur Niederschläge Wind Luftdruck Luftfeuchtigkeit
    00:00 +16°C° 0 mm 3 m/S 743 mmHg 91%
    01:00 +14°C° 0 mm 3 m/S 743 mmHg 91%
    02:00 +13°C° 0 mm 3 m/S 744 mmHg 92%
    03:00 +13°C° 0 mm 3 m/S 744 mmHg 92%
    04:00 +12°C° 0 mm 3 m/S 744 mmHg 92%
    05:00 +12°C° 0 mm 3 m/S 745 mmHg 92%
    06:00 +13°C° 0 mm 3 m/S 745 mmHg 85%
    07:00 +16°C° 0 mm 3 m/S 746 mmHg 79%
    08:00 +17°C° 0 mm 3 m/S 746 mmHg 73%
    09:00 +19°C° 0 mm 3 m/S 746 mmHg 65%
    10:00 +20°C° 0 mm 3 m/S 747 mmHg 57%
    11:00 +21°C° 0 mm 4 m/S 747 mmHg 49%
    12:00 +22°C° 0 mm 4 m/S 747 mmHg 48%
    13:00 +22°C° 0 mm 4 m/S 747 mmHg 47%
    14:00 +22°C° 0 mm 4 m/S 747 mmHg 46%
    15:00 +22°C° 0 mm 4 m/S 747 mmHg 50%
    16:00 +21°C° 0 mm 3 m/S 747 mmHg 53%
    17:00 +21°C° 0 mm 3 m/S 747 mmHg 57%
    18:00 +19°C° 0 mm 3 m/S 747 mmHg 61%
    19:00 +17°C° 0 mm 3 m/S 747 mmHg 65%
    20:00 +14°C° 0 mm 3 m/S 748 mmHg 70%
    21:00 +13°C° 0 mm 3 m/S 748 mmHg 71%
    22:00 +13°C° 0 mm 2 m/S 748 mmHg 73%
    23:00 +13°C° 0 mm 2 m/S 748 mmHg 75%

    23 August, Donnerstag

    Zeit Temperatur Niederschläge Wind Luftdruck Luftfeuchtigkeit
    00:00 +12°C° 0 mm 2 m/S 748 mmHg 76%
    01:00 +12°C° 0 mm 2 m/S 748 mmHg 78%
    02:00 +10°C° 0 mm 2 m/S 749 mmHg 79%
    03:00 +10°C° 0 mm 2 m/S 749 mmHg 81%
    04:00 +9°C° 0 mm 2 m/S 749 mmHg 82%
    05:00 +9°C° 0 mm 2 m/S 749 mmHg 83%
    06:00 +12°C° 0 mm 2 m/S 749 mmHg 77%
    07:00 +14°C° 0 mm 2 m/S 749 mmHg 70%
    08:00 +16°C° 0 mm 2 m/S 749 mmHg 64%
    09:00 +18°C° 0 mm 2 m/S 749 mmHg 58%
    10:00 +19°C° 0 mm 2 m/S 749 mmHg 53%
    11:00 +20°C° 0 mm 2 m/S 749 mmHg 48%
    12:00 +21°C° 0 mm 2 m/S 749 mmHg 45%
    13:00 +23°C° 0 mm 2 m/S 749 mmHg 43%
    14:00 +23°C° 0 mm 1 m/S 748 mmHg 41%
    15:00 +23°C° 0 mm 1 m/S 748 mmHg 44%
    16:00 +23°C° 0 mm 1 m/S 748 mmHg 47%
    17:00 +23°C° 0 mm 1 m/S 748 mmHg 50%
    18:00 +21°C° 0 mm 1 m/S 748 mmHg 53%
    19:00 +19°C° 0 mm 1 m/S 748 mmHg 57%
    20:00 +16°C° 0 mm 2 m/S 748 mmHg 60%
    21:00 +16°C° 0 mm 2 m/S 748 mmHg 61%
    22:00 +15°C° 0 mm 2 m/S 748 mmHg 63%
    23:00 +14°C° 0 mm 2 m/S 748 mmHg 65%

    24 August, Freitag

    Zeit Temperatur Niederschläge Wind Luftdruck Luftfeuchtigkeit
    00:00 +14°C° 0 mm 2 m/S 748 mmHg 66%
    01:00 +14°C° 0 mm 2 m/S 747 mmHg 67%
    02:00 +13°C° 0 mm 2 m/S 747 mmHg 68%
    03:00 +13°C° 0 mm 2 m/S 747 mmHg 69%
    04:00 +13°C° 0 mm 2 m/S 747 mmHg 70%
    05:00 +12°C° 0 mm 2 m/S 747 mmHg 70%
    06:00 +14°C° 0 mm 2 m/S 747 mmHg 67%
    07:00 +16°C° 0 mm 3 m/S 747 mmHg 63%
    08:00 +18°C° 0 mm 3 m/S 747 mmHg 59%
    09:00 +20°C° 0 mm 3 m/S 747 mmHg 54%
    10:00 +21°C° 0 mm 3 m/S 747 mmHg 49%
    11:00 +24°C° 0 mm 3 m/S 747 mmHg 43%
    12:00 +24°C° 0 mm 3 m/S 747 mmHg 42%
    13:00 +25°C° 0 mm 3 m/S 746 mmHg 40%
    14:00 +26°C° 0 mm 3 m/S 746 mmHg 39%
    15:00 +25°C° 0 mm 3 m/S 746 mmHg 43%
    16:00 +25°C° 0 mm 2 m/S 746 mmHg 46%
    17:00 +24°C° 0 mm 2 m/S 746 mmHg 50%
    18:00 +21°C° 0 mm 2 m/S 745 mmHg 53%
    19:00 +19°C° 0 mm 3 m/S 745 mmHg 56%
    20:00 +17°C° 0 mm 3 m/S 745 mmHg 59%
    21:00 +17°C° 0 mm 3 m/S 745 mmHg 60%
    22:00 +16°C° 0 mm 3 m/S 745 mmHg 61%
    23:00 +14°C° 0 mm 3 m/S 745 mmHg 62%

    25 August, Samstag

    Zeit Temperatur Niederschläge Wind Luftdruck Luftfeuchtigkeit
    00:00 +14°C° 0 mm 3 m/S 745 mmHg 62%
    01:00 +14°C° 0 mm 3 m/S 745 mmHg 62%
    02:00 +13°C° 0 mm 3 m/S 744 mmHg 62%
    03:00 +13°C° 0 mm 3 m/S 744 mmHg 62%
    04:00 +13°C° 0 mm 3 m/S 744 mmHg 62%
    05:00 +13°C° 0 mm 3 m/S 744 mmHg 62%
    06:00 +14°C° 0 mm 3 m/S 744 mmHg 60%
    07:00 +17°C° 0 mm 4 m/S 744 mmHg 58%
    08:00 +19°C° 0 mm 4 m/S 744 mmHg 56%
    09:00 +21°C° 0 mm 4 m/S 744 mmHg 53%
    10:00 +22°C° 0 mm 4 m/S 744 mmHg 50%
    11:00 +23°C° 0 mm 4 m/S 744 mmHg 48%
    12:00 +25°C° 0 mm 4 m/S 744 mmHg 47%
    13:00 +26°C° 0 mm 4 m/S 743 mmHg 46%
    14:00 +26°C° 0 mm 4 m/S 743 mmHg 45%
    15:00 +25°C° 0 mm 4 m/S 743 mmHg 49%
    16:00 +24°C° 0 mm 3 m/S 743 mmHg 53%
    17:00 +24°C° 0 mm 2 m/S 743 mmHg 57%
    18:00 +22°C° 0 mm 3 m/S 743 mmHg 56%
    19:00 +22°C° 0 mm 3 m/S 743 mmHg 54%
    20:00 +21°C° 0 mm 3 m/S 743 mmHg 53%
    21:00 +21°C° 0 mm 3 m/S 743 mmHg 52%
    22:00 +20°C° 0 mm 4 m/S 743 mmHg 51%
    23:00 +20°C° 0 mm 4 m/S 743 mmHg 50%
    Mehr zeigen